Easton, MD

9:44 PM EDT on March 22, 2017 (GMT -0400)
Easton / Newnam

Weather History for KESN - December, 2012

Change the Weather History Date:

Thursday, December 6, 2012

  Actual Average Record
Temperature  
Mean Temperature 36 °F -  
Max Temperature 45 °F 54 °F 67 °F (1956)
Min Temperature 28 °F 33 °F 20 °F (1949)
Degree Days  
Heating Degree Days 29    
Moisture  
Dew Point 26 °F    
Average Humidity 73    
Maximum Humidity 93    
Minimum Humidity 46    
Precipitation  
Precipitation 0.00 in - - ()
Sea Level Pressure  
Sea Level Pressure 30.35 in    
Wind  
Wind Speed 4 mph (NE)    
Max Wind Speed 9 mph    
Max Gust Speed -    
Visibility 10 miles    
Events      
Averages and records for this station are not official NWS values.
T = Trace of Precipitation, MM = Missing Value Source: NWS Daily Summary

Daily Weather History Graph

Daily Weather History Graph

Search for Another Location

Airport or City:

Trip Planner

Search our weather history database for the weather conditions in past years. The results will help you decide how hot, cold, wet, or windy it might be!

Date:

Astronomy

Dec. 06, 2012 Rise Set
Actual Time 7:08 AM EST 4:42 PM EST
Civil Twilight 6:39 AM EST 5:11 PM EST
Nautical Twilight 6:05 AM EST 5:45 PM EST
Astronomical Twilight 5:33 AM EST 6:17 PM EST
Moon No Moon Rise 12:03 PM EST (12/6)
Length of Visible Light 10h 32m
Length of Day
9h 33m
Waning Gibbous, 49% of the Moon is Illuminated
Dec 6
Waning Gibbous
Dec 13
New
Dec 20
First Quarter
Dec 28
Full
Jan 4
Last Quarter

Hourly Weather History & Observations

Time (EST) Temp. Windchill Dew Point Humidity Pressure Visibility Wind Dir Wind Speed Gust Speed Precip Events Conditions
12:10 AM 37.4 °F 31.4 °F 26.1 °F 64% 30.31 in 10.0 mi NE 8.1 mph - N/A   Clear
12:31 AM 36.5 °F 31.8 °F 26.2 °F 66% 30.31 in 10.0 mi NNE 5.8 mph - N/A   Clear
12:53 AM 35.8 °F 30.9 °F 25.7 °F 67% 30.32 in 10.0 mi North 5.8 mph - N/A   Clear
1:14 AM 36.1 °F 33.5 °F 25.5 °F 65% 30.32 in 10.0 mi North 3.5 mph - N/A   Clear
1:35 AM 35.6 °F 31.7 °F 25.7 °F 67% 30.32 in 10.0 mi NNE 4.6 mph - N/A   Clear
1:57 AM 34.9 °F - 25.7 °F 69% 30.34 in 10.0 mi Calm Calm - N/A   Clear
2:18 AM 35.2 °F 30.3 °F 26.4 °F 70% 30.34 in 10.0 mi NNE 5.8 mph - N/A   Clear
2:39 AM 35.1 °F 30.1 °F 26.6 °F 71% 30.34 in 10.0 mi NNE 5.8 mph - N/A   Clear
3:01 AM 34.7 °F 29.6 °F 26.6 °F 72% 30.34 in 10.0 mi NNE 5.8 mph - N/A   Clear
3:22 AM 35.1 °F 28.6 °F 26.1 °F 70% 30.34 in 10.0 mi NNE 8.1 mph - N/A   Clear
3:43 AM 34.2 °F 29.0 °F 26.2 °F 73% 30.34 in 10.0 mi NNE 5.8 mph - N/A   Clear
4:04 AM 33.6 °F 28.4 °F 25.7 °F 73% 30.34 in 10.0 mi NNE 5.8 mph - N/A   Clear
4:26 AM 33.3 °F 27.9 °F 25.5 °F 73% 30.35 in 10.0 mi North 5.8 mph - N/A   Clear
4:47 AM 32.7 °F 29.6 °F 24.8 °F 73% 30.36 in 10.0 mi North 3.5 mph - N/A   Clear
5:51 AM 30.2 °F - 24.4 °F 79% 30.38 in 10.0 mi Calm Calm - N/A   Clear
5:55 AM 30.2 °F - 24.8 °F 80% 30.38 in 10.0 mi Calm Calm - N/A   Clear
6:12 AM 30.9 °F 26.2 °F 24.6 °F 77% 30.39 in 10.0 mi NE 4.6 mph - N/A   Clear
6:34 AM 29.1 °F - 24.1 °F 81% 30.39 in 10.0 mi Calm Calm - N/A   Clear
6:39 AM 29.1 °F 24.1 °F 24.1 °F 81% 30.39 in 10.0 mi NE 4.6 mph - N/A   Clear
6:53 AM 28.4 °F 23.3 °F 24.8 °F 86% 30.39 in 10.0 mi NNE 4.6 mph - N/A   Clear
7:53 AM 32.0 °F 28.7 °F 24.8 °F 75% 30.40 in 10.0 mi NNE 3.5 mph - N/A   Scattered Clouds
8:53 AM 35.6 °F 28.6 °F 24.8 °F 65% 30.42 in 10.0 mi NNE 9.2 mph - N/A   Scattered Clouds
9:53 AM 37.4 °F 30.8 °F 23.0 °F 56% 30.42 in 10.0 mi NE 9.2 mph - N/A   Scattered Clouds
10:55 AM 39.2 °F 33.6 °F 24.8 °F 56% 30.41 in 10.0 mi East 8.1 mph - N/A   Partly Cloudy
11:54 AM 42.8 °F - 24.8 °F 49% 30.39 in 10.0 mi Calm Calm - N/A   Scattered Clouds
12:55 PM 44.6 °F - 24.8 °F 46% 30.36 in 10.0 mi Calm Calm - N/A   Mostly Cloudy
1:55 PM 44.6 °F - 24.8 °F 46% 30.36 in 10.0 mi Calm Calm - N/A   Mostly Cloudy
2:46 PM 44.6 °F - 26.6 °F 49% 30.33 in 10.0 mi Calm Calm - N/A   Mostly Cloudy
3:55 PM 42.8 °F 40.1 °F 24.8 °F 49% 30.33 in 10.0 mi South 4.6 mph - N/A   Mostly Cloudy
5:45 PM 35.6 °F - 28.4 °F 75% 30.33 in 10.0 mi Calm Calm - N/A   Clear
6:53 PM 32.0 °F - 28.4 °F 87% 30.33 in 10.0 mi Calm Calm - N/A   Clear
7:45 PM 30.2 °F - 28.4 °F 93% 30.34 in 10.0 mi Calm Calm - N/A   Clear
8:58 PM 30.2 °F 26.7 °F 28.4 °F 93% 30.32 in 10.0 mi SE 3.5 mph - N/A   Clear
9:47 PM 30.4 °F 25.6 °F 28.2 °F 92% 30.32 in 10.0 mi SE 4.6 mph - N/A   Clear
10:08 PM 31.6 °F 26.0 °F 28.4 °F 88% 30.32 in 10.0 mi SE 5.8 mph - N/A   Clear
10:30 PM 31.1 °F 27.7 °F 28.4 °F 90% 30.33 in 10.0 mi SSE 3.5 mph - N/A   Clear
10:51 PM 31.3 °F - 28.4 °F 89% 30.33 in 10.0 mi Calm Calm - N/A   Clear
11:12 PM 30.7 °F - 28.4 °F 91% 30.33 in 10.0 mi Calm Calm - N/A   Clear
11:34 PM 30.2 °F - 28.2 °F 92% 30.32 in 10.0 mi Calm Calm - N/A   Clear
11:55 PM 30.7 °F - 28.2 °F 90% 30.32 in 10.0 mi Calm Calm - N/A   Clear